EHI
0 0 0 0 0 0 0 0 0 0 0 0 0 0 0 0 0 0 0 0 0 0 0 0 0 0 0 0 0 0 0 0 0 0 0 0 0 0 0 0 0 0 0 0
0 0 0 0 0 0 0 0 0 0 0 0 0 0 0 0 0 0 0 0 0 0 0 0 0 0 0 0 0 0 0 0 0 0 0 0 0 0 0 0 0 0 0 0
0 0 0 0 0 0 0 0 0 0 0 0 0 0 0 0 0 0 0 0 0 0 0 0 0 0 0 0 0 0 0 0 0 0 1 1 0 0 0 0 0 0 0 0
0 0 0 0 0 0 0 0 0 0 0 0 0 0 0 0 0 0 0 0 0 0 0 0 0 0 0 0 0 0 0 0 0 0 1 2 1 0 0 0 0 0 0 0
0 0 0 0 0 0 0 0 0 0 0 0 0 0 0 0 0 0 0 0 0 0 0 0 0 0 0 0 0 0 0 0 0 0 1 1 1 0 0 0 0 0 0 0
0 0 0 0 0 0 0 0 0 0 0 0 0 0 0 0 0 0 0 0 0 0 0 0 0 0 0 0 0 0 0 0 0 0 0 0 0 0 0 0 0 0 0 0
0 0 0 0 0 0 0 0 0 0 0 0 0 0 0 0 0 0 0 0 0 0 0 0 0 0 0 0 0 0 0 0 0 0 0 0 0 0 0 0 0 0 0 0
0 0 0 0 0 0 0 0 0 0 0 0 0 0 0 0 0 0 0 0 0 0 0 0 0 0 0 0 0 0 0 0 0 0 0 0 0 0 0 0 0 0 0 0
0 0 0 0 0 0 0 0 0 0 0 0 0 0 0 0 0 0 0 0 0 0 0 0 0 0 0 0 0 0 0 0 0 0 1 0 0 0 0 0 0 0 0 0
0 0 0 0 0 0 0 0 0 0 0 0 0 0 0 0 0 0 0 0 0 0 0 0 0 0 0 0 0 0 0 0 0 0 0 0 0 0 0 0 0 0 1 1
0 0 0 0 0 0 0 0 0 0 0 0 0 0 0 0 0 0 0 0 0 0 0 0 0 0 0 0 0 0 0 0 0 0 0 0 0 0 0 0 0 0 1 2
0 0 0 0 0 0 0 0 0 0 0 0 0 0 0 0 0 0 0 0 0 0 0 0 0 0 0 0 0 0 0 0 0 0 0 0 0 0 0 0 0 0 1 1
0 0 0 0 0 0 0 0 0 0 0 0 0 0 0 0 0 0 0 0 0 0 0 0 0 0 0 0 0 0 0 0 0 0 0 0 0 0 0 0 0 0 0 0
0 0 0 0 0 0 0 0 0 0 0 0 0 0 0 0 0 0 0 0 0 0 0 0 0 0 0 0 0 0 0 0 0 0 0 0 0 0 0 0 0 0 0 0
0 0 0 0 0 0 0 0 0 0 0 0 0 0 0 0 0 0 0 0 0 0 0 0 0 0 0 0 0 0 0 0 0 0 0 0 0 0 0 0 0 0 0 0
0 0 0 0 0 0 0 0 0 0 0 0 0 0 0 0 0 0 0 0 0 0 0 0 0 0 0 0 0 0 0 0 0 0 0 0 0 0 0 0 0 0 0 0
0 0 0 0 0 0 0 0 0 0 0 0 0 0 0 0 0 0 0 0 0 0 0 0 0 0 0 0 0 0 0 0 0 0 0 0 0 0 0 0 0 0 0 0
0 0 0 0 0 0 0 0 0 0 0 0 0 0 0 0 0 0 0 0 0 0 0 0 0 0 0 0 0 0 0 0 0 0 0 0 0 0 0 0 0 0 0 0
0 0 0 0 0 0 0 0 0 0 0 0 0 0 0 0 0 0 0 0 0 0 0 0 0 0 0 0 0 0 0 0 0 0 0 0 0 0 0 0 0 0 0 0
0 0 0 0 0 0 0 0 0 0 0 0 0 0 0 0 0 0 0 0 0 0 0 0 0 0 0 0 0 0 0 0 0 0 0 0 0 0 0 0 0 0 0 0
0 0 0 0 0 0 0 0 0 0 0 0 0 0 0 0 0 0 0 0 0 0 0 0 0 0 0 0 0 0 0 0 0 0 0 0 0 0 0 0 0 0 0 0
0 0 0 0 0 0 0 0 0 0 0 0 0 0 0 0 0 0 0 0 0 0 0 0 0 0 0 0 0 0 0 0 0 0 0 0 0 0 0 0 0 0 0 0
0 0 0 0 0 0 0 0 0 0 0 0 0 0 0 0 0 0 0 0 0 0 0 0 0 0 0 0 0 0 0 0 0 0 0 0 0 0 0 0 0 0 0 0
0 0 0 0 0 0 0 0 0 0 0 0 0 0 0 0 0 0 0 0 0 0 0 0 0 0 0 0 0 0 0 0 0 0 0 0 0 0 0 0 0 0 0 0
0 0 0 0 0 0 0 0 0 0 0 0 0 0 0 0 0 0 0 0 0 0 0 0 0 0 0 0 0 0 0 0 0 0 0 0 0 0 0 0 0 0 0 0
0 0 0 0 0 0 0 0 0 0 0 0 0 0 0 0 0 0 0 0 0 0 0 0 0 0 0 0 0 0 0 0 0 0 0 0 0 0 0 0 0 0 0 0
0 0 0 0 0 0 0 0 0 0 0 0 0 0 0 0 0 0 0 0 0 0 0 0 0 0 0 0 0 0 0 0 0 0 0 0 0 0 0 0 0 0 0 0
Wind_Speed
17 18 17 18 19 16 15 14 14 16 18 17 16 16 15 14 14 14 13 13 13 13 12 11 10 8 8 7 6 6 7 9 11 12 12 13 13 14 14 14 14 14 15 15
15 15 16 19 20 18 17 16 18 19 20 15 15 14 13 13 13 13 13 13 14 13 13 12 11 10 9 8 7 6 7 9 9 10 11 12 13 14 14 14 14 14 14 14
11 12 14 14 12 12 11 11 12 15 14 12 13 14 13 12 12 12 13 13 14 13 13 12 11 10 9 9 7 6 7 8 9 10 11 12 12 13 14 14 14 14 13 14
8 9 11 6 3 7 10 12 12 13 13 13 13 14 12 10 11 12 14 14 14 13 13 12 11 10 9 8 7 6 7 8 9 10 11 11 12 13 14 12 12 13 13 13
6 8 13 10 6 5 8 11 8 10 11 12 12 12 10 8 10 12 13 13 13 12 13 12 11 10 9 8 7 6 7 8 8 10 11 11 12 12 12 11 11 11 11 12
7 9 10 6 1 1 5 9 3 6 10 11 10 10 9 11 13 13 13 12 12 12 12 11 10 9 8 8 7 7 7 7 8 9 11 12 12 12 11 10 10 10 9 10
11 11 11 7 1 3 6 5 5 7 9 10 10 11 13 15 14 13 14 14 13 12 11 10 9 9 8 8 7 7 6 7 8 9 10 11 11 10 10 10 10 10 9 9
8 10 11 2 4 6 7 7 9 10 11 12 13 14 14 14 14 14 14 14 13 12 11 10 9 8 9 9 8 7 6 6 7 8 8 8 10 10 10 11 11 10 9 9
9 10 7 4 8 9 9 10 11 11 12 13 14 14 14 14 14 13 13 13 12 12 12 10 8 8 9 9 7 7 6 6 6 7 8 9 11 11 10 10 10 9 9 8
11 14 14 13 13 12 12 12 12 12 12 13 13 14 15 13 13 13 13 12 11 11 11 11 10 9 9 8 7 6 6 6 6 7 7 8 8 9 9 10 10 10 10 9
15 16 14 13 12 13 12 12 12 12 12 13 13 14 14 13 13 12 12 12 11 10 11 11 10 10 8 7 6 6 6 5 5 6 7 7 6 6 8 8 10 11 10 10
13 12 11 12 12 12 12 13 13 13 13 12 12 13 13 13 12 11 12 11 11 11 11 11 10 10 8 7 6 6 5 5 5 5 6 6 6 5 5 7 11 11 11 11
16 14 13 14 13 12 12 13 12 12 12 13 12 11 12 12 11 11 11 12 11 11 11 11 10 10 8 7 6 6 6 5 4 6 7 7 7 8 8 8 10 11 13 13
13 12 13 12 12 11 11 12 11 11 11 11 10 10 10 11 11 11 11 11 11 11 10 10 9 9 8 7 6 6 5 5 5 6 7 7 7 7 8 10 9 7 9 15
11 11 12 11 11 11 10 10 10 10 10 10 9 9 10 11 11 11 11 11 10 9 8 8 8 8 7 6 5 5 4 4 4 5 6 7 7 7 7 9 9 9 8 10
8 9 10 10 11 10 9 9 9 10 10 10 10 10 10 11 11 11 11 9 9 9 8 7 8 8 7 6 5 3 3 5 6 6 7 7 7 7 8 9 10 10 10 10
7 8 7 8 9 9 8 8 8 9 9 10 10 11 11 11 11 11 10 9 9 8 8 7 8 8 6 5 4 2 3 5 7 6 6 7 7 7 8 8 9 9 9 11
8 9 8 8 8 8 8 8 8 9 9 10 11 10 10 11 11 11 11 10 9 9 8 7 6 7 6 4 2 2 3 4 5 6 6 7 7 7 8 8 9 10 9 10
6 6 6 6 6 7 8 8 9 9 9 9 10 10 10 11 11 10 10 9 9 9 8 7 9 7 5 3 1 2 4 5 5 5 6 9 8 8 8 8 9 9 10 9
4 4 5 5 6 6 7 8 8 9 9 9 10 10 11 10 10 10 9 9 7 6 8 9 8 6 4 2 2 3 4 5 6 6 7 7 8 8 8 9 9 9 9 9
3 4 5 5 6 7 7 8 8 9 9 9 9 10 11 10 9 8 8 8 7 7 8 9 6 4 3 1 2 3 4 6 6 7 7 8 8 8 8 9 9 9 9 9
4 4 5 6 6 7 7 7 8 9 9 9 10 9 9 10 9 8 8 7 8 10 8 5 4 3 3 1 2 4 5 6 6 6 7 7 8 8 8 9 9 9 9 9
4 5 6 6 7 8 9 8 8 8 9 9 9 9 9 9 7 7 7 6 6 10 8 5 4 3 2 0 2 4 5 6 6 6 7 7 7 8 9 9 9 10 10 10
5 5 6 6 7 8 9 9 8 7 8 9 8 8 8 7 6 6 6 9 10 10 6 5 4 2 1 1 3 4 5 5 6 6 7 7 7 8 8 9 9 9 10 11
6 6 6 7 7 7 8 8 9 8 8 7 8 8 6 5 6 6 6 7 9 9 5 4 2 1 1 2 3 4 4 5 6 6 7 7 8 8 8 9 9 10 10 10
6 6 6 7 7 7 6 6 6 6 6 7 6 6 5 5 6 6 6 6 7 7 4 2 1 0 1 2 3 4 5 6 6 6 7 8 9 9 9 9 12 10 10 10
6 6 5 6 6 5 6 6 6 7 6 6 7 6 5 5 5 5 5 5 4 3 2 1 0 1 2 3 4 4 5 5 6 7 7 8 8 9 10 11 10 10 10 10
Wind_Direction
269 276 277 274 275 271 257 253 261 273 282 293 306 313 316 320 324 327 330 334 335 333 332 332 327 319 311 295 285 260 234 224 217 212 208 203 198 194 191 189 188 186 188 190
277 276 277 275 271 267 262 257 257 267 276 286 298 306 310 315 321 324 325 327 327 327 327 327 326 318 312 302 291 273 244 230 220 213 206 201 197 192 188 187 185 183 187 188
280 295 292 271 262 257 253 251 257 266 279 300 304 308 309 313 315 318 320 321 320 320 320 319 318 315 307 300 290 272 254 237 223 212 205 199 195 191 187 186 183 184 185 187
280 290 261 271 292 269 265 264 261 268 281 292 299 302 300 305 308 313 317 317 315 315 316 316 314 312 306 298 286 270 254 241 225 210 205 197 191 190 187 184 183 184 184 185
261 269 275 280 272 252 258 274 271 273 288 300 307 301 287 304 311 307 309 309 309 309 311 312 311 310 305 296 285 267 252 242 229 211 203 196 192 189 185 182 182 181 181 181
248 262 269 281 324 280 274 273 284 295 301 309 312 299 303 321 314 308 308 309 311 311 311 311 311 309 302 293 284 271 259 248 234 213 202 195 193 189 183 178 175 171 173 176
243 255 267 278 257 206 250 287 329 311 307 307 299 292 302 307 307 307 307 310 312 312 310 308 309 305 297 290 283 280 270 253 237 215 201 193 188 184 177 169 165 165 163 165
229 240 254 202 188 231 268 305 297 298 302 300 295 296 299 302 306 307 308 310 312 311 308 307 304 298 292 287 287 285 270 251 235 214 195 185 180 176 172 165 161 160 156 154
224 243 279 250 252 268 283 286 291 294 297 296 293 294 298 301 304 306 306 307 309 307 305 304 300 294 289 290 289 279 264 248 227 207 189 182 179 172 169 165 162 161 159 157
251 257 266 272 274 275 278 280 284 288 292 292 291 293 297 299 301 304 305 306 307 305 302 301 300 295 289 290 286 267 253 239 214 196 184 180 177 173 171 168 165 163 161 158
253 267 278 270 269 275 280 282 285 288 288 287 289 290 292 294 297 301 302 302 302 299 299 299 299 297 294 290 280 260 242 225 202 186 175 171 167 171 173 172 170 165 164 162
254 266 268 278 282 283 283 285 288 292 292 289 286 286 290 290 292 296 298 300 299 297 296 297 297 294 293 290 274 253 232 208 187 174 167 158 147 130 113 138 143 150 156 160
257 271 273 279 283 283 283 287 289 288 287 290 290 287 286 287 290 294 296 297 296 295 294 296 296 294 294 292 274 248 225 207 181 172 165 159 153 150 139 109 112 129 139 145
255 264 269 271 277 284 286 289 290 289 288 289 291 292 290 289 291 293 295 297 296 293 291 291 292 292 295 293 279 252 222 199 184 173 163 159 156 153 152 148 141 126 128 137
255 255 260 274 281 285 288 291 292 293 297 297 297 297 298 298 297 297 299 301 297 292 290 293 293 294 299 297 283 254 210 185 179 166 157 152 147 145 145 145 141 137 133 133
266 263 262 266 274 284 292 293 292 296 302 302 303 302 301 299 297 298 300 302 299 297 299 300 295 296 303 300 290 257 205 180 173 159 152 147 145 146 145 145 145 147 148 146
258 262 266 272 278 283 285 286 288 294 299 300 302 304 303 301 301 303 305 306 300 294 294 294 295 300 300 294 278 227 177 159 157 154 151 148 148 149 147 146 147 148 149 154
249 258 263 269 273 279 285 289 291 295 296 298 302 303 302 302 301 303 306 307 306 303 300 296 299 303 300 286 250 189 164 159 156 153 149 148 146 145 143 144 146 145 144 145
255 261 269 273 276 280 287 292 295 297 298 300 301 299 298 298 298 300 304 304 303 304 307 310 311 307 299 283 218 165 155 150 146 144 144 143 143 144 144 144 145 145 143 142
271 275 279 283 285 286 289 295 298 298 300 302 300 300 300 300 302 302 301 295 291 293 301 307 307 300 293 264 174 157 154 150 148 146 143 144 143 142 142 141 143 141 140 139
280 284 286 290 292 292 291 295 296 296 299 299 296 296 297 299 300 298 297 296 301 307 304 304 301 295 293 250 157 153 149 148 148 145 143 142 141 140 140 140 140 138 136 135
280 284 288 292 294 296 298 299 295 294 295 294 292 293 295 298 300 297 287 283 296 308 309 301 297 296 295 264 147 137 135 136 137 136 138 140 140 140 141 140 138 136 135 135
283 287 291 295 297 299 300 297 294 293 292 293 293 294 293 293 294 293 295 296 300 307 307 296 291 295 292 211 132 130 132 134 136 136 136 137 139 141 141 139 137 136 137 137
285 290 293 296 297 295 294 297 297 294 291 290 288 288 290 291 289 284 284 294 301 305 300 292 286 281 273 138 131 130 133 135 135 133 132 132 134 135 136 136 135 136 136 136
286 288 289 290 289 287 291 297 298 295 293 291 291 290 286 280 282 291 294 294 299 302 295 287 284 282 134 128 131 131 132 136 137 136 135 135 135 135 134 134 136 137 137 138
284 284 283 280 278 281 285 287 288 292 295 295 295 297 296 292 287 286 289 293 294 295 292 288 291 96 116 125 130 132 133 135 134 135 136 135 136 136 135 135 135 136 135 134
282 282 282 283 282 278 280 281 283 287 289 290 294 299 302 300 297 296 297 298 300 301 310 330 26 105 120 127 128 128 128 129 130 131 132 131 131 131 133 134 133 132 132 133